Skip Page Navigation
NASA JPL Caltech
NASA Logo - Jet Propulsion Laboratory + View the NASA Portal
+ Near-Earth Object (NEO) Program
Search JPL
JPL Home Earth Solar System Stars & Galaxies Technology
JPL Solar System Dynamics
BODIES ORBITS EPHEMERIDES TOOLS PHYSICAL DATA DISCOVERY FAQ SITE MAP
JPL Small-Body Database Browser
Search: [ help ]  
79271 Bellagio (1995 SJ5)
Classification: Main-belt Asteroid          SPK-ID: 2079271
Ephemeris | Orbit Diagram | Orbital Elements | Physical Parameters | Discovery Circumstances | Close-Approach Data ]

[ show orbit diagram ]
Orbital Elements at Epoch 2456400.5 (2013-Apr-18.0) TDB
Reference: JPL 1 (heliocentric ecliptic J2000)
 Element Value Uncertainty (1-sigma)   Units 
e .1937533328244292 1.0403e-07  
a 2.232193793277942 2.5027e-08 AU
q 1.799698806320335 2.3343e-07 AU
i 5.066965592158909 1.1425e-05 deg
node 335.5067073811767 0.00012472 deg
peri 332.4455688726882 0.00013012 deg
M 139.5968960994327 4.9209e-05 deg
tp 2455928.143895425053
(2012-Jan-01.64389542)
0.00016233 JED
period 1218.137382695517
3.34
2.0486e-05
5.609e-08
d
yr
n .2955331681910832 4.9702e-09 deg/d
Q 2.664688780235548 2.9876e-08 AU
  Orbit Determination Parameters
   # obs. used (total)      260  
   data-arc span      6967 days (19.07 yr)  
   first obs. used      1994-03-07  
   last obs. used      2013-04-03  
   planetary ephem.      DE405  
   SB-pert. ephem.      SB405-CPV-2  
   condition code      0  
   fit RMS      .55444  
   data source      ORB  
   producer      Otto Matic  
   solution date      2013-Apr-29 17:32:50  

Additional Information
 Earth MOID = .786898 AU 
 T_jup = 3.611 
[ show covariance matrix ]

Ephemeris | Orbit Diagram | Orbital Elements | Physical Parameters | Discovery Circumstances | Close-Approach Data ]

Physical Parameter Table
Parameter Symbol Value Units Sigma Reference Notes
absolute magnitude H 15.851 mag .53035 1 autocmod 2.5c

79271 Bellagio           Discovered 1995 Sept. 28 by V. Giuliani and G. Ventre at Sormano.
Bellagio is a world-famous tourist destination situated on the Lake Como a few kilometers north of the Sormano Astronomical Observatory.
NOTE: some special characters may not display properly (any characters within {} are an attempt to place the proper accent above a character)
Reference: 20050523/MPCPages.arcLast Updated: 2005-07-21

[ show close-approach data ]
Alternate Designations
 1995 SJ5 = 2001 KX52 
Ephemeris | Orbit Diagram | Orbital Elements | Physical Parameters | Discovery Circumstances | Close-Approach Data ]
ABOUT SSD CREDITS/AWARDS PRIVACY/COPYRIGHT GLOSSARY LINKS
FirstGov 2013-Jun-20 04:46 UT
(server date/time)  
NASA Home Page
Site Manager:   Donald K. Yeomans
Webmaster  Alan B. Chamberlin